Regional Weather Roundup
Issued by NWS Boston, MA

Home | Current Version | Previous Version | Text Only | Print | Product List | Glossary On
Versions: 1 2 3 4 5 6 7 8 9 10 11 12 13 14 15 16 17 18 19 20 21 22 23 24 25 26 27 28 29 30 31 32 33 34 35 36 37 38 39 40 41 42 43 44 45 46 47 48 49 50
000
ASUS41 KBOX 011410
RWRBOX

REGIONAL WEATHER ROUNDUP
NATIONAL WEATHER SERVICE TAUNTON MA
1000 AM EDT TUE SEP 01 2015

NOTE:  "FAIR" INDICATES FEW OR NO CLOUDS BELOW 12,000 FEET WITH NO
SIGNIFICANT WEATHER AND/OR OBSTRUCTIONS TO VISIBILITY.  THE FOLLOWING
OBSERVATION LOCATIONS DO NOT REPORT PRESENT WEATHER...PROVINCETOWN...
SMITHFIELD...BLOCK ISLAND...KEENE...AND OXFORD.

MAZALL-011500-
EASTERN MASSACHUSETTS

CITY           SKY/WX    TMP DP  RH WIND       PRES   REMARKS
BOSTON         MOSUNNY   78  59  51 NE7       30.05R
BEVERLY        SUNNY     75  60  59 E6        30.05R
LAWRENCE       SUNNY     76  62  62 VRB5      30.07R
BEDFORD        SUNNY     77  60  55 NW9       30.04R
BLUE HILL        N/A     76  61  59 CALM      30.06R
NORWOOD        SUNNY     78  62  57 VRB7      30.05R
MARSHFIELD     SUNNY     75  64  69 N5        30.07R
PLYMOUTH       SUNNY     76  62  62 NE13      30.06R
TAUNTON        SUNNY     79  62  56 E7        30.04R
NEW BEDFORD    SUNNY     78  62  57 NE8       30.04R
$$

MAZALL-011500-
CAPE COD AND THE ISLANDS

CITY           SKY/WX    TMP DP  RH WIND       PRES   REMARKS
FALMOUTH       SUNNY     75  64  69 NE9G16    30.05R
HYANNIS        SUNNY     76  64  66 N9        30.03R
CHATHAM        SUNNY     74  62  66 NE8       30.05R
PROVINCETOWN     N/A     73  63  68 N7        30.05R
NANTUCKET      SUNNY     79  64  60 NE14      30.04R
MARTHAS VNYRD  SUNNY     79  63  57 NE13      30.04R
$$

MAZALL-011500-
CENTRAL AND WESTERN MASSACHUSETTS

CITY           SKY/WX    TMP DP  RH WIND       PRES   REMARKS
WORCESTER      SUNNY     74  57  55 N6        30.09R
FITCHBURG      SUNNY     79  58  48 VRB5      30.06S
ORANGE         SUNNY     74  62  66 N6        30.08R
SPRINGFIELD    MOSUNNY   76  64  65 NE9       30.06R
WESTFIELD      SUNNY     78  63  59 N6        30.06S
NORTH ADAMS    SUNNY     72  64  76 CALM      30.09S
PITTSFIELD     SUNNY     73  63  70 NW6       30.09S
$$

RIZALL-011500-
RHODE ISLAND

CITY           SKY/WX    TMP DP  RH WIND       PRES   REMARKS
PROVIDENCE     MOSUNNY   80  62  54 NE10      30.05R
NEWPORT        SUNNY     78  64  61 NE8       30.05R
BLOCK ISLAND   SUNNY     75  64  69 NE9       30.05R
SMITHFIELD     SUNNY     75  63  64 N9        30.06R
WESTERLY       SUNNY     80  61  52 N8        30.05R
$$

CTZALL-011500-
CONNECTICUT

CITY           SKY/WX    TMP DP  RH WIND       PRES   REMARKS
BRADLEY INTL   MOSUNNY   77  64  64 NE6       30.06R
HARTFORD       SUNNY     78  64  61 N6        30.06R
BRIDGEPORT     SUNNY     80  66  62 N7        30.05R
DANBURY        SUNNY     78  62  57 N5        30.09R
GROTON         SUNNY     80  63  55 N9        30.04R
NEW HAVEN      SUNNY     79  64  60 NE9       30.05R
CHESTER        NOT AVBL
MERIDEN        SUNNY     80  63  55 CALM      30.06R
WILLIMANTIC    SUNNY     78  63  59 NE6       30.06R
OXFORD         SUNNY     75  61  60 E7        30.10R
$$

MEZ002-015-021-024-NHZ003-005-008-011-012-014-VTZ005-008-011500-
NORTHERN NEW ENGLAND

CITY           SKY/WX    TMP DP  RH WIND       PRES   REMARKS
PORTLAND ME    MOSUNNY   75  55  49 N9        30.05R
BANGOR ME      MOSUNNY   70  54  56 NE9       30.05R
CONCORD NH     SUNNY     76  61  59 N5        30.06S
MANCHESTER NH  SUNNY     77  60  55 N8        30.04S
NASHUA NH      SUNNY     76  63  64 N6        30.06R
PORTSMOUTH NH  MOSUNNY   75  62  62 VRB2      30.04R
JAFFREY NH     SUNNY     74  61  63 VRB3      30.09R
KEENE NH       SUNNY     66  61  82 CALM      30.08S
BURLINGTON VT  PTSUNNY   71  62  73 SE3       30.08F
MT. WASHINGTON MOSUNNY   54   5  14 N32         N/A
$$

NYZ052-076-011500-
EASTERN NEW YORK

CITY           SKY/WX    TMP DP  RH WIND       PRES   REMARKS
ALBANY         MOSUNNY   75  65  70 E3        30.08R
NEW YORK CITY  MOSUNNY   80  65  59 NE8       30.05R
$$

ANZALL-011500-
MARINE OBSERVATIONS

STATION/POSITION TIME  TEMP    WIND        PRES    VSBY  WAVE
                       AIR SEA DIR/SP/G                  HT/PER
                 (UTC) (F)     (DEG/KT/KT) (MB)    (MI)  (FT/S)
BOSTON BUOY      1350   70 70   10/  6/  8 1017.9R         1/10
BUZZARDS BAY     1300           20/  9/  9 1017.8R
NANTUCKET SOUND  1350   74 74   30/  8/ 12 1016.8R         1/ 3
MASS BAY-STELLWA 1304   70 69   10/ 10/ 12   N/A    1 7/8  2/11
ISLE OF SHOALS   1400   68      20/  5/  6 1017.2R
S OF BLOCK IS    1308      74                N/A           3/ 6
$$

......................KEY.........................
  SKY/WX - SKY CONDITION/PRESENT WEATHER
  TMP    - TEMPERATURE IN FAHRENHEIT
  DWPT   - DEWPOINT IN FAHRENHEIT
  RH     - RELATIVE HUMIDITY IN PERCENT
  WIND   - DIRECTION AND SPEED IN MPH
  PRES   - MEAN SEA LEVEL PRESSURE IN INCHES OF HG
  WCI    - WIND CHILL INDEX
  VSB    - VISIBILITY IN MILES
  HX     - HEAT INDEX
  TC     - TEMPERATURE IN CELSIUS
  VRB    - VARIABLE WIND DIRECTION
  N/A    - NOT AVAILABLE


USA.gov is the U.S. government's official web portal to all federal, state and local government web resources and services.